Track EUTE HOT BIRD 13B (HB 8) now! EUTE HOT BIRD 13B (HB 8) is classified as:
1 29270U 06032A 26248.29280910 .00000145 00000-0 00000-0 0 9994 2 29270 1.8617 81.2360 0003345 85.2739 316.3913 1.00270097 48110